• In Czech Republic
  • List of Countries
  • For 7 days
  • Water Temperature
  • Satellite Maps
  • Weather Map
  • Weather Widgets
  • user-avatar
    Login

    Hourly Weather Slobodka (Sorochino)

    Today, 22 September, Saturday

    Time Temperature Precipitation Wind Pressure Humidity
    00:00 +18°C° 0 mm 4 mps 741 mmHg 67%
    01:00 +17°C° 0 mm 5 mps 741 mmHg 68%
    02:00 +16°C° 0 mm 5 mps 740 mmHg 69%
    03:00 +16°C° 0 mm 5 mps 740 mmHg 69%
    04:00 +16°C° 0 mm 5 mps 739 mmHg 69%
    05:00 +16°C° 0 mm 5 mps 739 mmHg 68%
    06:00 +16°C° 0 mm 5 mps 739 mmHg 67%
    07:00 +17°C° 0 mm 6 mps 738 mmHg 65%
    08:00 +17°C° 0 mm 6 mps 738 mmHg 64%
    09:00 +19°C° 0 mm 6 mps 738 mmHg 63%
    10:00 +20°C° 0 mm 6 mps 738 mmHg 62%
    11:00 +21°C° 0 mm 6 mps 738 mmHg 62%
    12:00 +19°C° 0.2 mm 6 mps 739 mmHg 69%
    13:00 +16°C° 0.2 mm 5 mps 739 mmHg 76%
    14:00 +13°C° 0 mm 4 mps 740 mmHg 84%
    15:00 +12°C° 0.8 mm 4 mps 740 mmHg 85%
    16:00 +12°C° 0.8 mm 4 mps 740 mmHg 87%
    17:00 +11°C° 0.8 mm 4 mps 740 mmHg 89%
    18:00 +11°C° 0.8 mm 4 mps 740 mmHg 90%
    19:00 +10°C° 0.8 mm 3 mps 740 mmHg 90%
    20:00 +10°C° 0.8 mm 3 mps 740 mmHg 91%
    21:00 +10°C° 0.1 mm 3 mps 740 mmHg 91%
    22:00 +9°C° 0.1 mm 3 mps 740 mmHg 91%
    23:00 +9°C° 0.1 mm 3 mps 740 mmHg 91%

    Tomorrow, 23 September, Sunday

    Time Temperature Precipitation Wind Pressure Humidity
    00:00 +9°C° 0 mm 3 mps 740 mmHg 92%
    01:00 +8°C° 0 mm 3 mps 740 mmHg 93%
    02:00 +7°C° 0 mm 3 mps 740 mmHg 95%
    03:00 +7°C° 0 mm 3 mps 740 mmHg 95%
    04:00 +7°C° 0 mm 3 mps 740 mmHg 95%
    05:00 +7°C° 0 mm 3 mps 740 mmHg 95%
    06:00 +8°C° 0 mm 3 mps 739 mmHg 91%
    07:00 +7°C° 0 mm 4 mps 739 mmHg 87%
    08:00 +8°C° 0 mm 4 mps 739 mmHg 83%
    09:00 +10°C° 0 mm 5 mps 739 mmHg 76%
    10:00 +11°C° 0 mm 6 mps 739 mmHg 69%
    11:00 +13°C° 0 mm 6 mps 739 mmHg 63%
    12:00 +14°C° 0.2 mm 6 mps 739 mmHg 61%
    13:00 +14°C° 0.2 mm 6 mps 739 mmHg 59%
    14:00 +14°C° 0.2 mm 6 mps 739 mmHg 57%
    15:00 +14°C° 0.1 mm 5 mps 739 mmHg 60%
    16:00 +13°C° 0.1 mm 4 mps 739 mmHg 63%
    17:00 +12°C° 0.1 mm 3 mps 739 mmHg 65%
    18:00 +11°C° 0 mm 3 mps 739 mmHg 70%
    19:00 +10°C° 0 mm 3 mps 738 mmHg 75%
    20:00 +9°C° 0 mm 3 mps 738 mmHg 80%
    21:00 +8°C° 0 mm 3 mps 738 mmHg 83%
    22:00 +8°C° 0 mm 3 mps 738 mmHg 86%
    23:00 +8°C° 0 mm 3 mps 738 mmHg 90%

    Day after tomorrow, 24 September, Monday

    Time Temperature Precipitation Wind Pressure Humidity
    00:00 +8°C° 0 mm 3 mps 738 mmHg 91%
    01:00 +8°C° 0 mm 2 mps 737 mmHg 92%
    02:00 +8°C° 0 mm 2 mps 737 mmHg 94%
    03:00 +8°C° 0.2 mm 2 mps 736 mmHg 94%
    04:00 +8°C° 0.2 mm 2 mps 735 mmHg 95%
    05:00 +8°C° 0.2 mm 2 mps 735 mmHg 96%
    06:00 +8°C° 1.3 mm 2 mps 734 mmHg 96%
    07:00 +8°C° 1.3 mm 2 mps 733 mmHg 96%
    08:00 +8°C° 1.3 mm 3 mps 733 mmHg 96%
    09:00 +8°C° 2 mm 3 mps 732 mmHg 96%
    10:00 +8°C° 2 mm 3 mps 731 mmHg 95%
    11:00 +7°C° 2 mm 4 mps 730 mmHg 94%
    12:00 +7°C° 1.4 mm 5 mps 730 mmHg 93%
    13:00 +7°C° 1.4 mm 5 mps 730 mmHg 91%
    14:00 +7°C° 1.4 mm 6 mps 729 mmHg 89%
    15:00 +8°C° 0.5 mm 6 mps 730 mmHg 88%
    16:00 +8°C° 0.5 mm 6 mps 730 mmHg 87%
    17:00 +8°C° 0.5 mm 5 mps 731 mmHg 86%
    18:00 +7°C° 0 mm 5 mps 732 mmHg 87%
    19:00 +7°C° 0 mm 5 mps 732 mmHg 88%
    20:00 +7°C° 0 mm 5 mps 733 mmHg 89%
    21:00 +6°C° 0 mm 5 mps 734 mmHg 88%
    22:00 +6°C° 0 mm 5 mps 735 mmHg 87%
    23:00 +4°C° 0 mm 6 mps 735 mmHg 87%

    25 September, Tuesday

    Time Temperature Precipitation Wind Pressure Humidity
    00:00 +4°C° 0 mm 6 mps 736 mmHg 87%
    01:00 +3°C° 0 mm 6 mps 736 mmHg 88%
    02:00 +3°C° 0 mm 6 mps 737 mmHg 88%
    03:00 +2°C° 0 mm 6 mps 738 mmHg 88%
    04:00 +2°C° 0 mm 6 mps 738 mmHg 88%
    05:00 +2°C° 0 mm 6 mps 738 mmHg 88%
    06:00 +2°C° 0 mm 6 mps 739 mmHg 85%
    07:00 +2°C° 0 mm 6 mps 740 mmHg 83%
    08:00 +3°C° 0 mm 7 mps 740 mmHg 80%
    09:00 +4°C° 0 mm 7 mps 741 mmHg 77%
    10:00 +4°C° 0 mm 7 mps 741 mmHg 73%
    11:00 +5°C° 0 mm 7 mps 742 mmHg 70%
    12:00 +6°C° 0.2 mm 7 mps 743 mmHg 67%
    13:00 +6°C° 0.2 mm 7 mps 743 mmHg 65%
    14:00 +6°C° 0.2 mm 7 mps 744 mmHg 62%
    15:00 +7°C° 0.1 mm 6 mps 744 mmHg 63%
    16:00 +5°C° 0.1 mm 6 mps 745 mmHg 64%
    17:00 +6°C° 0.1 mm 5 mps 745 mmHg 65%
    18:00 +5°C° 0 mm 5 mps 746 mmHg 66%
    19:00 +4°C° 0 mm 4 mps 747 mmHg 66%
    20:00 +3°C° 0 mm 4 mps 748 mmHg 67%
    21:00 +3°C° 0 mm 4 mps 748 mmHg 67%
    22:00 +1°C° 0 mm 4 mps 749 mmHg 67%
    23:00 +1°C° 0 mm 4 mps 749 mmHg 68%

    26 September, Wednesday

    Time Temperature Precipitation Wind Pressure Humidity
    00:00 +1°C° 0 mm 4 mps 750 mmHg 71%
    01:00 +1°C° 0 mm 4 mps 750 mmHg 75%
    02:00 +1°C° 0 mm 4 mps 750 mmHg 79%
    03:00 +1°C° 0 mm 4 mps 750 mmHg 80%
    04:00 0°C° 0 mm 4 mps 750 mmHg 81%
    05:00 0°C° 0 mm 4 mps 750 mmHg 82%
    06:00 +1°C° 0 mm 4 mps 751 mmHg 79%
    07:00 +2°C° 0 mm 5 mps 751 mmHg 76%
    08:00 +3°C° 0 mm 5 mps 751 mmHg 73%
    09:00 +5°C° 0 mm 6 mps 750 mmHg 71%
    10:00 +8°C° 0 mm 6 mps 750 mmHg 69%
    11:00 +10°C° 0 mm 6 mps 750 mmHg 67%
    12:00 +10°C° 0.1 mm 6 mps 749 mmHg 69%
    13:00 +10°C° 0.1 mm 6 mps 749 mmHg 71%
    14:00 +10°C° 0.1 mm 7 mps 748 mmHg 74%
    15:00 +9°C° 0.5 mm 7 mps 748 mmHg 77%
    16:00 +8°C° 0.5 mm 7 mps 747 mmHg 81%
    17:00 +8°C° 0.5 mm 7 mps 746 mmHg 84%
    18:00 +6°C° 0.1 mm 7 mps 746 mmHg 83%
    19:00 +6°C° 0.1 mm 7 mps 745 mmHg 81%
    20:00 +6°C° 0.1 mm 8 mps 745 mmHg 79%
    21:00 +5°C° 0.1 mm 8 mps 744 mmHg 79%
    22:00 +5°C° 0.1 mm 8 mps 743 mmHg 80%
    23:00 +5°C° 0.1 mm 8 mps 742 mmHg 80%

    27 September, Thursday

    Time Temperature Precipitation Wind Pressure Humidity
    00:00 +5°C° 0.1 mm 8 mps 742 mmHg 81%
    01:00 +5°C° 0.1 mm 8 mps 741 mmHg 82%
    02:00 +6°C° 0.1 mm 8 mps 741 mmHg 83%
    03:00 +6°C° 0.1 mm 8 mps 740 mmHg 84%
    04:00 +6°C° 0.1 mm 8 mps 740 mmHg 85%
    05:00 +7°C° 0.1 mm 8 mps 739 mmHg 86%
    06:00 +8°C° 0.3 mm 7 mps 739 mmHg 87%
    07:00 +8°C° 0.3 mm 7 mps 739 mmHg 87%
    08:00 +8°C° 0.3 mm 7 mps 738 mmHg 88%
    09:00 +8°C° 0.3 mm 7 mps 738 mmHg 88%
    10:00 +9°C° 0.3 mm 7 mps 738 mmHg 87%
    11:00 +9°C° 0.3 mm 7 mps 737 mmHg 87%
    12:00 +10°C° 0.2 mm 7 mps 737 mmHg 87%
    13:00 +10°C° 0.2 mm 7 mps 737 mmHg 87%
    14:00 +10°C° 0.2 mm 7 mps 737 mmHg 87%
    15:00 +10°C° 0.4 mm 7 mps 736 mmHg 86%
    16:00 +11°C° 0.4 mm 7 mps 736 mmHg 85%
    17:00 +11°C° 0.4 mm 6 mps 736 mmHg 85%
    18:00 +10°C° 0.1 mm 6 mps 736 mmHg 84%
    19:00 +9°C° 0.1 mm 6 mps 736 mmHg 83%
    20:00 +9°C° 0.1 mm 6 mps 737 mmHg 83%
    21:00 +8°C° 0 mm 6 mps 737 mmHg 83%
    22:00 +8°C° 0 mm 5 mps 737 mmHg 84%
    23:00 +7°C° 0 mm 5 mps 737 mmHg 85%
    Show more